User: anonymous   Login
Location: Ostrava
(49.8330°N, 18.2830°E)
Time: 22:58:15
(UTC+02:00)
Language:

Cosmos 2221 - Orbit

View from above orbital plane
View from above orbital plane
View from above satellite
View from above satellite

Ground track
Ground track

The orbit data is extracted from the following two-line orbital elements,

1 22236U 92080A   15241.21380953  .00000639  00000-0  68443-4 0  9995
2 22236 082.5107 320.3859 0017487 027.0196 333.1927 14.87039914229515
Epoch (UTC): 29 August 2015 05:07:53
Eccentricity: 0.0017487
inclination: 82.5107°
perigee height: 595 km
apogee height: 619 km
right ascension of ascending node: 320.3859°
argument of perigee: 27.0196°
revolutions per day: 14.87039914
mean anomaly at epoch: 333.1927°
orbit number at epoch: 22951

The dashed part of the orbit path shows where the satellite is in the earth's shadow,  

DLR